Wind_Speed
32 29 27 27 26 24 30 40 47 52 52 55 57 58 59 64 72 76 86 90 90 90 91 91 88 85 82 79 75 69 71 67 62 59 57 54 52 47 44 44 40 37 33 31 31 29 30 28 28 23 20 20 25 27
32 30 28 28 28 25 26 34 42 50 51 51 54 54 54 57 65 71 76 87 89 88 87 88 90 90 87 83 80 79 72 73 68 67 62 59 58 52 52 48 46 43 38 38 35 35 34 34 29 25 20 19 23 25
30 30 29 29 29 26 25 30 39 46 51 50 49 51 49 52 57 63 70 75 85 89 86 84 86 90 92 88 85 81 79 77 73 71 68 67 64 60 58 56 50 50 47 43 41 39 37 37 35 29 25 23 25 29
29 29 29 30 30 27 24 27 34 43 50 51 48 48 48 47 49 55 62 66 72 83 89 85 84 84 88 90 87 85 84 80 78 76 73 71 69 67 64 61 61 54 55 51 48 44 42 41 40 38 33 27 28 31
31 30 30 31 31 27 24 26 31 39 47 52 51 47 46 45 46 48 53 59 64 69 79 88 87 84 83 85 89 89 87 86 84 82 79 77 73 74 70 68 67 61 59 59 56 51 49 44 46 45 43 36 31 33
34 32 32 33 32 29 24 26 30 36 43 50 51 49 46 45 45 47 49 52 56 61 66 73 83 88 84 82 83 87 91 89 89 87 83 82 83 78 75 74 70 70 69 66 62 61 55 53 51 50 48 46 40 35
36 36 34 34 33 31 27 27 29 35 40 46 49 48 45 43 42 44 46 46 48 52 57 61 66 77 84 84 82 82 84 89 91 88 89 90 88 83 80 80 77 74 72 72 69 67 64 59 56 54 51 51 50 45
41 41 40 38 36 34 30 29 30 35 38 43 47 45 41 40 40 41 41 42 42 43 46 51 56 60 68 77 83 84 82 82 85 90 92 92 90 89 88 90 87 83 81 77 74 73 71 67 62 58 56 55 55 55
46 46 44 42 38 36 33 32 32 35 37 43 44 41 38 36 36 35 35 36 37 39 41 43 46 49 53 60 68 76 82 83 82 81 83 85 90 94 96 92 89 86 86 82 82 81 77 73 70 65 62 60 59 59
44 45 46 43 38 37 36 34 34 36 38 41 41 38 36 33 32 28 27 27 28 32 37 40 39 42 44 48 52 59 67 73 79 81 81 80 80 84 90 95 97 95 91 87 86 85 81 79 76 74 70 68 65 64
38 38 36 35 35 37 35 35 35 37 38 40 39 37 33 31 27 25 24 24 26 28 30 33 34 35 37 40 43 48 53 58 64 71 76 81 82 81 81 83 86 90 91 92 92 91 88 84 80 80 77 74 72 69
26 25 26 29 33 33 33 36 36 38 39 39 38 35 33 30 28 27 26 27 27 28 28 28 29 30 30 31 34 37 41 45 50 55 60 67 70 74 77 79 81 82 83 85 88 89 90 89 87 85 83 77 75 76
19 23 25 28 30 31 34 36 37 40 40 39 36 36 32 31 31 30 30 30 29 28 26 25 23 22 21 21 23 27 32 39 42 46 50 52 54 56 58 62 65 69 73 77 80 83 84 86 87 88 86 83 78 78
19 22 25 27 30 34 35 38 41 41 41 39 39 36 34 34 34 34 33 31 30 28 26 24 22 20 18 15 15 18 22 24 27 29 32 35 38 41 43 48 53 57 61 65 70 75 78 79 80 81 80 82 83 85
21 24 27 30 34 36 38 42 42 43 41 42 40 38 38 37 37 36 35 32 32 33 32 30 28 24 19 14 10 9 12 7 2 10 13 18 23 26 30 33 37 43 49 53 57 62 66 71 74 75 76 78 80 81
25 28 31 35 37 41 44 44 44 43 44 44 42 40 40 40 39 37 38 38 39 35 36 31 26 22 17 12 9 12 18 14 12 7 5 9 13 15 18 21 24 29 34 40 46 52 56 60 64 67 70 72 75 78
30 33 36 39 44 46 46 45 45 46 45 44 42 42 42 43 43 44 40 39 37 37 32 27 22 18 15 12 10 10 10 9 9 9 8 7 7 3 5 9 13 17 21 26 32 38 43 49 54 57 59 63 66 68
37 40 44 47 48 46 46 46 46 46 46 46 46 47 48 47 45 41 39 38 36 32 28 24 20 16 13 11 8 9 6 5 4 4 5 8 11 11 11 9 9 10 13 18 23 27 31 35 38 41 44 46 49 52
44 47 48 47 47 47 48 49 50 50 50 50 52 51 49 45 43 39 37 36 33 29 24 21 18 15 11 8 6 5 4 3 4 3 3 3 6 8 8 9 9 9 10 10 11 13 16 19 23 27 30 33 35 37
46 45 44 46 48 50 51 52 53 53 53 52 53 50 46 43 40 37 36 34 30 25 20 17 15 11 8 5 5 3 4 5 2 2 2 4 5 6 7 6 5 4 5 6 8 10 10 13 15 16 16 20 23 25
43 45 48 50 52 54 55 56 56 53 52 52 50 47 43 41 38 36 33 28 23 19 16 15 12 8 5 5 3 3 3 3 4 7 11 15 14 14 13 12 10 10 9 8 8 10 11 11 10 10 12 13 15 16
48 50 52 53 54 54 56 53 50 51 50 48 45 42 40 38 34 31 26 21 18 16 14 11 9 6 4 3 2 3 6 9 15 15 16 17 19 18 17 17 16 17 19 18 15 12 9 8 9 9 11 12 14 15
50 51 51 51 54 54 50 48 49 47 45 42 40 37 34 32 28 24 21 17 15 14 11 9 7 5 3 4 7 13 14 16 17 18 18 19 18 17 17 16 16 16 16 15 14 12 11 9 8 6 5 5 5 6
49 48 50 52 50 47 45 44 43 40 38 36 34 31 28 26 24 21 18 16 15 14 12 10 8 5 5 9 16 18 18 18 18 17 15 13 11 10 10 9 9 9 8 7 5 4 2 0 2 4 6 9 11 13
47 49 50 46 43 41 40 40 37 34 33 30 27 24 22 20 19 19 19 17 17 17 15 14 13 11 17 18 21 18 16 15 15 13 11 10 8 6 4 3 2 3 4 4 4 4 5 6 7 8 10 13 15 17
48 47 44 42 40 39 38 36 33 31 28 25 22 19 17 16 16 17 17 20 21 20 20 20 21 25 23 23 20 18 15 12 10 9 8 6 4 2 3 6 6 4 4 6 6 5 6 9 11 13 15 18 21 24
43 40 39 38 37 35 33 31 28 24 21 19 22 22 23 25 25 25 25 24 23 26 27 25 23 20 20 18 16 14 11 10 8 7 6 5 6 8 8 8 9 10 8 7 8 10 12 13 15 18 23 26 26 27
37 35 33 32 30 29 26 24 21 20 22 27 31 31 29 27 22 20 20 22 25 25 22 20 17 15 13 12 11 10 9 8 8 8 9 11 10 10 11 11 11 8 8 9 11 13 17 19 21 26 27 28 25 19
30 29 27 26 25 24 24 22 21 23 28 32 33 33 29 27 26 24 24 23 23 20 18 16 14 13 11 10 10 10 10 10 12 13 13 11 12 13 14 13 12 12 13 15 17 20 22 25 27 29 26 17 16 15
27 25 26 26 26 25 24 25 24 21 21 27 32 31 28 26 25 23 22 21 20 18 17 14 13 11 10 10 11 12 13 15 16 15 15 15 16 17 17 16 16 17 19 20 22 24 26 28 30 24 16 14 15 17
26 25 26 25 23 22 22 22 22 22 20 21 22 23 21 20 19 17 15 14 13 13 14 14 14 14 14 16 17 18 19 18 19 19 19 19 21 21 19 19 19 21 23 26 26 27 28 29 20 13 12 14 17 21
26 27 27 26 24 21 21 19 17 16 18 19 21 19 18 16 15 16 16 15 15 16 17 18 18 20 21 21 22 22 23 23 24 24 25 25 24 23 23 22 23 25 25 26 27 27 24 15 12 12 14 18 22 25
22 22 23 22 20 21 20 20 20 20 20 20 20 21 20 20 20 21 21 21 20 20 22 23 24 25 26 27 27 28 27 26 25 25 25 24 23 24 25 24 23 25 24 24 22 15 11 11 12 15 19 23 25 27
Wind_Direction
258 260 268 271 268 258 246 234 229 227 226 226 228 229 230 228 225 224 222 221 222 223 225 225 225 225 224 224 223 222 224 225 225 226 228 229 231 229 235 236 237 238 237 239 242 248 257 255 254 255 252 256 250 248
258 256 261 264 266 261 250 238 230 225 223 224 227 227 230 228 225 224 223 221 221 223 225 225 224 224 225 225 224 225 224 225 226 227 228 230 232 230 235 236 239 240 240 239 242 242 250 259 262 258 248 248 249 243
259 255 256 258 261 258 254 240 230 224 222 222 224 224 226 227 226 224 224 223 222 222 224 225 226 225 225 226 226 226 226 226 227 228 228 230 232 233 236 240 240 241 242 242 241 245 246 250 258 260 254 245 242 242
258 254 252 254 255 254 253 244 231 223 220 219 220 221 222 224 225 224 224 223 223 223 223 224 225 225 226 226 226 227 228 228 228 230 231 231 232 235 236 239 240 241 243 244 245 243 246 249 254 257 258 251 243 241
258 252 249 249 251 249 248 243 231 222 219 218 217 218 219 221 224 224 224 223 223 223 223 223 224 226 227 226 227 227 228 229 230 230 231 233 234 235 236 237 239 242 244 244 245 244 242 242 247 253 257 255 243 243
254 249 247 247 248 247 245 240 230 221 218 217 216 216 219 221 224 226 227 225 224 223 222 223 224 225 227 228 228 228 229 230 232 232 233 234 235 236 236 238 238 240 242 244 246 245 241 241 244 247 251 254 253 243
249 247 245 243 243 243 242 236 229 220 216 215 214 215 216 219 223 226 226 226 224 222 221 222 222 223 225 227 228 230 231 231 232 233 234 235 236 237 237 240 240 239 240 243 245 246 244 240 240 242 244 249 253 252
243 243 241 239 237 238 236 231 225 217 213 210 210 211 213 217 221 224 227 228 227 223 219 219 219 221 223 225 227 229 231 232 233 235 236 237 238 238 238 240 241 240 241 241 242 244 245 244 243 242 242 243 247 251
241 239 238 236 234 234 230 225 219 212 208 205 206 206 208 212 218 223 225 224 220 217 214 214 215 218 219 223 225 228 230 232 235 236 238 239 239 239 239 240 242 244 243 243 245 245 245 245 245 244 243 242 243 247
241 241 238 238 233 229 224 218 211 205 202 200 200 200 200 205 210 209 207 203 200 202 206 209 212 216 218 222 225 228 230 233 235 237 239 240 241 240 240 240 241 242 243 243 245 246 246 245 246 245 245 245 243 244
239 238 236 231 225 220 216 209 201 197 193 192 192 191 194 195 191 190 187 184 183 186 194 200 205 211 216 221 225 228 232 235 237 239 241 243 243 243 243 242 241 241 242 243 244 245 246 246 245 246 245 246 244 242
235 225 222 216 212 210 203 196 191 188 185 185 184 185 181 178 177 176 174 174 174 179 184 191 199 205 211 217 222 228 232 235 238 241 243 245 246 246 246 245 244 242 241 241 242 243 244 243 243 244 245 244 245 245
210 207 202 199 197 194 190 184 180 177 179 178 175 172 170 170 168 167 165 165 167 169 172 176 180 188 197 210 220 229 234 237 240 242 245 248 249 248 247 247 245 243 241 240 240 240 241 242 241 242 243 243 244 247
192 190 185 184 182 180 176 173 171 171 172 170 166 163 164 163 161 159 157 158 157 156 158 161 162 161 170 188 209 228 240 244 246 247 247 249 250 249 246 243 242 240 237 236 236 235 236 238 240 241 242 243 244 244
176 174 171 169 169 167 165 163 164 166 164 160 158 161 160 158 156 153 152 153 150 148 144 142 142 143 143 143 138 131 132 116 225 247 250 250 249 247 246 244 238 234 232 231 230 231 231 233 235 238 239 240 242 244
160 159 160 159 158 156 156 157 161 160 157 156 156 155 153 152 150 149 146 145 141 140 138 141 140 141 135 126 96 72 65 51 41 25 280 259 248 241 235 231 229 228 227 227 226 226 227 230 232 235 237 239 240 242
152 152 151 150 149 151 153 156 156 153 153 152 151 147 148 148 146 143 143 141 142 140 141 145 145 141 130 123 100 83 69 37 30 33 53 104 93 122 198 209 208 209 212 217 221 225 227 229 232 234 237 240 241 243
144 144 145 146 149 150 152 151 148 146 147 148 147 147 145 144 143 143 142 140 140 142 144 145 138 131 129 113 97 81 72 41 11 29 45 59 73 82 104 122 145 167 188 199 209 216 221 227 231 234 237 240 242 244
140 142 145 146 147 147 144 143 144 145 145 145 145 145 145 144 143 143 145 144 145 145 144 136 130 133 129 115 92 66 38 1 349 15 45 82 103 104 102 96 99 115 138 163 180 197 209 217 223 228 232 236 239 240
139 141 141 141 140 140 140 140 142 143 145 145 146 144 143 141 143 144 144 145 145 146 139 133 135 133 124 107 94 58 11 5 37 101 70 58 68 68 81 95 104 109 126 140 139 140 167 189 204 208 218 225 232 237
134 135 136 136 137 139 141 141 143 143 144 145 144 145 143 144 144 146 146 146 147 142 137 139 139 133 114 103 76 32 27 81 109 109 107 106 103 99 103 102 95 104 124 146 160 161 182 203 217 217 218 224 230 236
129 132 134 136 139 140 140 141 141 143 144 145 146 146 146 148 150 150 148 150 147 146 143 140 140 129 116 81 56 107 135 136 129 123 117 110 103 100 97 93 89 87 87 91 95 106 133 174 199 219 235 241 243 247
131 133 134 136 137 138 137 139 142 143 145 147 146 148 149 151 152 155 156 158 158 158 157 157 157 152 134 121 136 144 148 142 127 116 112 108 106 102 97 94 92 91 92 94 95 98 103 109 116 132 153 182 212 233
127 130 133 134 134 134 135 138 140 143 145 147 148 150 154 157 160 164 167 171 174 178 180 179 177 175 147 151 151 154 146 136 129 124 116 110 110 109 103 95 90 86 82 81 81 77 71 5 284 273 276 276 275 274
127 129 130 130 129 131 134 137 139 142 144 148 153 158 163 167 173 177 183 186 190 192 190 190 186 182 168 163 153 146 141 142 139 140 142 139 139 133 119 98 41 1 344 331 323 309 299 291 285 283 281 281 281 282
127 128 128 129 131 133 137 140 143 145 146 149 155 163 176 189 196 194 184 178 180 179 178 178 178 171 171 166 162 158 153 151 154 161 167 167 177 225 296 310 313 316 303 301 303 291 289 293 296 299 301 300 298 295
129 129 130 133 134 135 136 139 141 145 148 153 148 142 136 127 130 138 143 150 156 162 166 172 177 183 176 167 162 166 172 185 189 195 216 250 272 290 299 303 303 296 287 280 287 298 303 303 304 307 309 308 303 299
128 131 134 135 134 135 136 137 137 134 135 137 129 129 133 139 143 144 145 151 156 162 166 164 161 162 165 171 177 184 199 217 237 254 268 279 286 295 303 296 289 280 273 283 294 304 308 307 307 312 312 308 302 299
133 133 133 131 131 130 127 123 124 130 136 134 133 136 136 138 141 145 147 149 151 154 156 161 167 175 185 197 210 225 243 256 266 275 281 285 292 301 305 299 285 284 288 297 302 306 308 311 312 313 308 297 296 298
137 139 137 136 136 135 134 133 135 142 148 151 148 146 148 151 153 156 159 162 166 169 174 180 189 202 216 229 238 247 259 269 279 285 285 289 295 299 301 297 292 289 293 298 300 301 305 308 308 301 289 290 299 307
135 136 140 143 144 140 136 140 146 156 165 166 166 160 161 160 164 168 171 174 180 191 203 210 218 228 236 243 249 258 266 276 280 285 287 291 295 298 298 294 292 293 295 296 297 299 304 304 296 280 283 296 304 308
136 138 141 143 145 144 153 155 158 167 172 173 175 176 175 178 187 196 202 205 215 225 232 239 251 260 262 266 271 274 278 285 289 290 288 288 288 287 288 288 291 293 293 294 295 296 296 281 267 276 291 301 303 306
147 149 155 161 163 164 167 174 180 186 190 193 197 197 200 209 219 225 232 234 242 245 244 251 256 265 272 274 276 281 284 288 290 288 288 287 287 288 289 290 290 297 297 296 291 282 264 262 276 291 300 305 307 310
Height
10406 10405 10404 10404 10404 10403 10404 10408 10414 10422 10430 10438 10447 10456 10465 10474 10485 10497 10509 10523 10538 10550 10564 10578 10592 10608 10620 10631 10643 10658 10660 10671 10682 10690 10694 10701 10707 10715 10720 10724 10729 10734 10739 10743 10746 10749 10751 10752 10753 10756 10759 10762 10763 10764
10394 10395 10395 10394 10394 10393 10393 10396 10402 10410 10418 10425 10434 10443 10451 10459 10469 10480 10492 10506 10520 10533 10546 10559 10574 10588 10601 10613 10627 10636 10650 10656 10669 10674 10685 10692 10695 10705 10706 10714 10718 10723 10731 10734 10737 10740 10743 10745 10747 10750 10753 10755 10756 10758
10382 10384 10384 10383 10384 10384 10383 10386 10390 10398 10406 10414 10422 10431 10440 10447 10455 10465 10476 10488 10502 10514 10528 10542 10554 10567 10581 10596 10610 10620 10633 10644 10653 10662 10672 10676 10682 10691 10696 10701 10710 10713 10718 10723 10727 10732 10735 10737 10739 10742 10746 10748 10749 10751
10371 10372 10373 10373 10374 10374 10375 10376 10380 10387 10394 10403 10412 10421 10430 10437 10444 10452 10462 10473 10484 10495 10510 10523 10535 10548 10562 10577 10592 10606 10616 10627 10638 10646 10655 10663 10670 10676 10685 10691 10693 10704 10705 10711 10714 10721 10725 10729 10732 10734 10736 10740 10743 10744
10359 10361 10362 10363 10363 10365 10366 10367 10371 10377 10384 10393 10402 10411 10420 10427 10434 10441 10449 10458 10468 10479 10492 10505 10518 10531 10545 10559 10573 10585 10597 10609 10619 10629 10638 10647 10657 10660 10670 10676 10679 10688 10693 10695 10700 10709 10713 10718 10721 10724 10727 10731 10735 10738
10346 10348 10350 10351 10352 10354 10357 10359 10362 10368 10375 10383 10392 10402 10411 10418 10425 10430 10437 10446 10455 10464 10477 10489 10502 10516 10528 10541 10553 10565 10578 10589 10600 10610 10621 10629 10638 10643 10653 10657 10667 10670 10674 10679 10687 10691 10699 10705 10710 10713 10716 10720 10725 10729
10332 10334 10337 10339 10341 10344 10347 10350 10354 10359 10366 10374 10384 10393 10402 10409 10415 10421 10428 10435 10444 10453 10465 10476 10487 10499 10512 10523 10535 10546 10557 10568 10579 10589 10598 10609 10617 10626 10637 10638 10643 10652 10659 10664 10670 10676 10683 10690 10696 10702 10706 10709 10713 10717
10315 10318 10322 10326 10329 10333 10337 10341 10345 10351 10358 10366 10376 10385 10395 10402 10407 10413 10420 10427 10435 10445 10454 10464 10474 10486 10496 10507 10518 10528 10539 10548 10559 10569 10579 10588 10599 10603 10615 10616 10621 10631 10638 10647 10654 10658 10665 10673 10682 10689 10694 10698 10701 10704
10297 10301 10306 10311 10317 10321 10326 10331 10337 10343 10351 10360 10370 10380 10388 10395 10401 10407 10413 10419 10427 10436 10445 10454 10465 10475 10484 10494 10503 10513 10522 10532 10541 10548 10558 10565 10571 10583 10588 10596 10604 10613 10620 10631 10634 10638 10647 10656 10665 10672 10678 10683 10688 10691
10281 10285 10291 10298 10305 10311 10316 10322 10329 10337 10345 10355 10365 10375 10384 10390 10396 10403 10408 10414 10421 10429 10438 10447 10457 10467 10477 10484 10493 10500 10507 10516 10524 10531 10538 10543 10551 10556 10561 10571 10582 10590 10597 10607 10612 10617 10630 10638 10645 10653 10660 10667 10673 10677
10267 10273 10280 10287 10295 10300 10307 10315 10322 10331 10341 10351 10362 10372 10380 10387 10394 10401 10406 10413 10420 10427 10435 10444 10453 10462 10469 10476 10483 10489 10495 10502 10508 10513 10518 10522 10527 10534 10540 10549 10558 10566 10574 10582 10590 10597 10605 10617 10626 10632 10639 10648 10655 10661
10259 10266 10272 10280 10285 10292 10300 10308 10317 10327 10339 10350 10360 10369 10377 10385 10393 10400 10407 10413 10421 10427 10435 10443 10450 10458 10465 10472 10477 10482 10486 10490 10494 10498 10501 10503 10509 10513 10518 10524 10532 10539 10547 10556 10564 10573 10582 10592 10603 10610 10615 10628 10637 10641
10254 10260 10265 10272 10280 10288 10296 10306 10316 10327 10338 10349 10359 10368 10377 10386 10393 10400 10407 10415 10421 10428 10436 10443 10451 10457 10463 10468 10473 10476 10478 10480 10482 10484 10486 10488 10490 10494 10497 10500 10506 10513 10522 10531 10540 10549 10558 10566 10577 10586 10599 10609 10617 10620
10250 10255 10262 10270 10278 10286 10295 10305 10317 10329 10340 10350 10360 10369 10379 10386 10394 10402 10410 10417 10425 10431 10438 10445 10450 10456 10462 10465 10468 10469 10470 10471 10472 10473 10474 10475 10476 10477 10478 10481 10485 10490 10497 10505 10515 10525 10535 10547 10557 10567 10578 10586 10593 10598
10248 10254 10261 10269 10278 10287 10297 10309 10321 10332 10342 10352 10362 10371 10380 10388 10396 10404 10412 10420 10427 10434 10441 10447 10452 10457 10462 10465 10467 10468 10467 10466 10466 10466 10466 10466 10466 10466 10466 10468 10470 10475 10481 10489 10497 10507 10518 10527 10537 10547 10558 10566 10571 10577
10250 10256 10263 10271 10281 10291 10303 10314 10325 10335 10344 10354 10364 10374 10383 10392 10400 10409 10417 10425 10432 10438 10444 10450 10455 10460 10463 10466 10467 10466 10464 10466 10466 10464 10463 10462 10461 10461 10461 10462 10464 10467 10472 10479 10486 10494 10503 10512 10521 10530 10537 10545 10553 10558
10255 10261 10269 10278 10288 10298 10308 10320 10330 10339 10349 10360 10370 10379 10388 10397 10405 10414 10422 10430 10436 10442 10448 10453 10458 10461 10465 10467 10468 10468 10467 10469 10468 10467 10466 10463 10461 10460 10460 10461 10462 10465 10469 10474 10481 10488 10495 10502 10509 10516 10524 10531 10538 10545
10260 10268 10277 10286 10296 10306 10316 10327 10337 10347 10357 10366 10376 10385 10394 10403 10411 10419 10427 10434 10440 10446 10451 10456 10461 10464 10467 10469 10470 10470 10471 10471 10471 10469 10468 10467 10465 10464 10464 10464 10465 10466 10469 10473 10477 10484 10489 10496 10502 10508 10514 10519 10525 10531
10271 10279 10287 10297 10306 10316 10326 10336 10345 10355 10365 10374 10384 10392 10401 10410 10418 10425 10432 10438 10444 10450 10455 10460 10463 10466 10469 10470 10471 10471 10472 10472 10471 10471 10470 10469 10468 10468 10469 10469 10469 10471 10474 10477 10480 10485 10490 10493 10497 10502 10507 10511 10516 10520
10283 10292 10301 10311 10320 10328 10337 10347 10356 10365 10374 10383 10393 10402 10410 10418 10425 10431 10438 10444 10450 10454 10458 10462 10465 10468 10470 10471 10472 10472 10473 10472 10472 10472 10472 10472 10471 10471 10472 10473 10474 10475 10477 10480 10483 10486 10489 10491 10493 10498 10503 10505 10509 10512
10300 10308 10316 10324 10332 10340 10348 10357 10366 10375 10384 10394 10402 10410 10417 10425 10432 10438 10444 10450 10454 10457 10460 10464 10467 10469 10471 10472 10473 10473 10473 10473 10473 10474 10474 10475 10475 10475 10475 10475 10476 10477 10478 10479 10483 10487 10488 10489 10492 10496 10499 10501 10504 10506
10316 10323 10329 10337 10345 10353 10362 10370 10379 10387 10395 10403 10411 10418 10425 10432 10438 10444 10449 10453 10457 10459 10462 10466 10468 10471 10472 10473 10474 10474 10475 10476 10477 10478 10479 10479 10480 10481 10481 10481 10482 10482 10482 10483 10485 10486 10488 10490 10492 10494 10496 10498 10500 10502
10330 10337 10345 10352 10360 10368 10375 10383 10391 10398 10406 10413 10420 10426 10433 10438 10444 10448 10452 10455 10458 10461 10464 10467 10470 10472 10473 10474 10476 10477 10479 10480 10481 10482 10482 10483 10485 10485 10486 10487 10487 10488 10489 10490 10491 10492 10493 10494 10495 10496 10497 10498 10499 10500
10348 10354 10360 10368 10374 10381 10388 10395 10402 10409 10415 10422 10428 10433 10438 10443 10447 10450 10454 10457 10460 10463 10466 10469 10471 10473 10475 10477 10479 10480 10482 10483 10484 10485 10486 10488 10489 10490 10490 10491 10491 10492 10492 10493 10493 10494 10494 10495 10495 10495 10496 10496 10496 10496
10364 10369 10376 10382 10387 10394 10400 10406 10412 10418 10423 10428 10433 10437 10441 10445 10448 10452 10455 10458 10461 10464 10468 10470 10473 10475 10478 10480 10483 10484 10486 10487 10488 10489 10490 10490 10491 10492 10492 10493 10493 10493 10494 10493 10493 10493 10492 10492 10492 10492 10492 10491 10491 10490
10379 10385 10389 10395 10400 10405 10410 10415 10420 10425 10429 10433 10436 10440 10442 10444 10447 10450 10453 10456 10460 10465 10469 10472 10474 10477 10479 10482 10484 10486 10488 10489 10490 10490 10491 10492 10492 10493 10493 10493 10493 10492 10492 10492 10491 10491 10490 10490 10488 10487 10486 10485 10484 10482
10393 10398 10402 10406 10410 10415 10419 10424 10428 10431 10434 10436 10438 10440 10443 10446 10449 10453 10456 10460 10465 10469 10472 10474 10476 10479 10482 10484 10486 10488 10488 10489 10490 10491 10491 10492 10492 10492 10491 10491 10490 10489 10488 10488 10487 10486 10486 10485 10484 10482 10480 10478 10474 10471
10405 10409 10412 10416 10420 10424 10428 10431 10434 10436 10438 10441 10443 10446 10450 10454 10457 10460 10463 10467 10470 10473 10476 10479 10481 10483 10484 10486 10487 10488 10489 10489 10489 10489 10490 10490 10489 10489 10488 10487 10486 10485 10485 10485 10484 10483 10481 10480 10478 10475 10472 10469 10465 10463
10415 10418 10422 10425 10428 10431 10434 10437 10440 10442 10445 10448 10450 10455 10458 10461 10465 10467 10469 10472 10474 10476 10479 10481 10482 10484 10485 10486 10486 10487 10487 10487 10486 10486 10486 10486 10485 10485 10483 10482 10482 10481 10481 10480 10479 10477 10475 10473 10470 10467 10463 10461 10459 10458
10423 10426 10428 10431 10434 10437 10439 10442 10446 10449 10453 10454 10455 10458 10461 10464 10467 10469 10471 10474 10476 10477 10479 10480 10482 10483 10484 10484 10485 10484 10484 10483 10483 10483 10482 10482 10481 10480 10479 10477 10476 10475 10474 10473 10471 10470 10468 10465 10461 10458 10456 10455 10454 10452
10429 10431 10434 10437 10440 10443 10446 10449 10451 10454 10457 10459 10462 10464 10466 10468 10470 10472 10474 10475 10476 10478 10479 10479 10480 10481 10481 10480 10480 10480 10480 10480 10479 10478 10477 10476 10475 10474 10473 10472 10471 10469 10468 10466 10463 10461 10458 10455 10453 10451 10451 10450 10448 10446
10435 10437 10439 10441 10444 10446 10449 10452 10455 10457 10460 10461 10463 10465 10468 10469 10471 10472 10473 10475 10476 10476 10477 10477 10477 10477 10477 10476 10476 10476 10476 10475 10473 10472 10471 10469 10468 10467 10466 10465 10464 10462 10460 10457 10455 10452 10450 10448 10448 10447 10446 10445 10443 10440
10439 10441 10443 10445 10447 10449 10451 10454 10456 10458 10460 10462 10463 10465 10467 10468 10469 10470 10471 10472 10472 10473 10472 10472 10472 10472 10471 10471 10470 10470 10469 10468 10466 10464 10463 10462 10461 10459 10458 10457 10455 10453 10451 10448 10445 10444 10443 10443 10443 10442 10440 10438 10435 10432